Weather History for Los Alamitos, CA

Change the Weather History Date:

Thursday, October 10, 2013

  Actual Average Record
Temperature  
Mean Temperature 58 °F -  
Max Temperature 68 °F 76 °F 92 °F (2010)
Min Temperature 49 °F 60 °F 49 °F (2013)
Degree Days  
Heating Degree Days 6    
Growing Degree Days 8 (Base 50)    
Moisture  
Dew Point 52 °F    
Average Humidity 84    
Maximum Humidity 100    
Minimum Humidity 46    
Precipitation  
Precipitation 0.00 in - - ()
Sea Level Pressure  
Sea Level Pressure 29.94 in    
Wind  
Wind Speed 4 mph (NE)    
Max Wind Speed 14 mph    
Max Gust Speed -    
Visibility 10 miles    
Events Rain    
Averages and records for this station are not official NWS values.
T = Trace of Precipitation, MM = Missing Value Source: NWS Daily Summary

Daily Weather History Graph

Daily Weather History Graph

Search for Another Location

Airport:

Trip Planner

Search our weather history database for the weather conditions in past years. The results will help you decide how hot, cold, wet, or windy it might be!

Date:

Astronomy

Oct. 10, 2013 Rise Set
Actual Time 6:53 AM PDT 6:24 PM PDT
Civil Twilight 6:28 AM PDT 6:49 PM PDT
Nautical Twilight 5:59 AM PDT 7:18 PM PDT
Astronomical Twilight 5:30 AM PDT 7:46 PM PDT
Moon 12:39 PM PDT (10/10) 11:17 PM PDT (10/10)
Length of Visible Light 12h 20m
Length of Day
11h 30m
Waxing Crescent, 37% of the Moon is Illuminated
Oct 10
Waxing Crescent
Oct 11
First Quarter
Oct 18
Full
Oct 26
Last Quarter
Nov 3
New

Hourly Weather History & Observations

Time (PDT) Temp. Dew Point Humidity Pressure Visibility Wind Dir Wind Speed Gust Speed Precip Events Conditions
12:08 AM 55.4 °F 55.4 °F 100% 29.81 in 10.0 mi NNW 1.2 mph - N/A   Overcast
12:13 AM 55.4 °F 55.4 °F 100% 29.81 in 10.0 mi NNE 2.3 mph - N/A Rain Light Rain
12:24 AM 53.6 °F 53.6 °F 100% 29.81 in 10.0 mi NE 3.5 mph - N/A   Mostly Cloudy
12:58 AM 53.8 °F 53.8 °F 100% 29.81 in 10.0 mi NNE 2.3 mph - 0.00 in   Mostly Cloudy
1:58 AM 52.0 °F 52.0 °F 100% 29.84 in 10.0 mi East 3.5 mph - N/A   Clear
2:58 AM 51.4 °F 51.4 °F 100% 29.84 in 10.0 mi East 4.6 mph - N/A   Clear
3:58 AM 51.4 °F 51.4 °F 100% 29.86 in 10.0 mi NE 3.5 mph - N/A   Clear
4:58 AM 50.2 °F 50.2 °F 100% 29.88 in 10.0 mi NNE 4.6 mph - N/A   Clear
5:58 AM 49.8 °F 49.8 °F 100% 29.90 in 10.0 mi NNE 3.5 mph - N/A   Clear
6:58 AM 49.6 °F 49.6 °F 100% 29.93 in 10.0 mi NE 5.8 mph - N/A   Scattered Clouds
7:58 AM 52.0 °F 52.0 °F 100% 29.95 in 10.0 mi ENE 5.8 mph - N/A   Clear
8:58 AM 57.0 °F 56.5 °F 98% 29.98 in 10.0 mi NE 5.8 mph - N/A   Clear
9:58 AM 60.8 °F 49.6 °F 67% 30.01 in 10.0 mi Variable 4.6 mph - N/A   Clear
10:58 AM 63.5 °F 46.2 °F 53% 30.02 in 10.0 mi East 3.5 mph - N/A   Clear
11:58 AM 63.9 °F 45.1 °F 51% 30.01 in 10.0 mi Variable 1.2 mph - N/A   Clear
12:58 PM 66.0 °F 46.0 °F 48% 29.99 in 10.0 mi SSW 8.1 mph - N/A   Mostly Cloudy
1:58 PM 68.2 °F 46.8 °F 46% 29.98 in 10.0 mi SSW 8.1 mph - N/A   Clear
2:58 PM 67.8 °F 46.8 °F 47% 29.99 in 10.0 mi SSW 13.8 mph - N/A   Clear
3:58 PM 67.6 °F 46.4 °F 46% 29.99 in 10.0 mi SW 10.4 mph - N/A   Clear
4:58 PM 65.7 °F 49.8 °F 57% 29.98 in 10.0 mi SW 10.4 mph - N/A   Clear
5:58 PM 63.7 °F 52.5 °F 67% 29.99 in 10.0 mi SW 8.1 mph - N/A   Clear
6:58 PM 60.8 °F 59.0 °F 94% 29.99 in 10.0 mi SSW 4.6 mph - N/A   Light Drizzle
7:02 PM 60.8 °F 59.0 °F 94% 29.98 in 10.0 mi SSW 3.5 mph - N/A   Clear
7:58 PM 59.5 °F 59.2 °F 99% 30.01 in 10.0 mi West 3.5 mph - 0.00 in   Clear
8:58 PM 59.9 °F 55.0 °F 84% 30.01 in 10.0 mi NNW 2.3 mph - N/A   Clear
9:58 PM 57.9 °F 57.7 °F 99% 30.03 in 10.0 mi Calm Calm - N/A   Clear
10:58 PM 56.1 °F 56.1 °F 100% 30.02 in 10.0 mi North 2.3 mph - N/A   Clear
11:58 PM 54.1 °F 54.1 °F 100% 30.02 in 10.0 mi Calm Calm - N/A   Clear